Location: Nitra
(0.0000°N, 18.0833°E)
Time: 19:43:13
(UTC+02:00)

A-11 Canister half - Pass Details

Date: 04 April 2023
Orbit: 1526 x 1682 km, 47.3° (Epoch: 08 June)

Event Time Altitude Azimuth Distance (km) Brightness Sun altitude
Rises 08:38:03 0° 184° (S) 4,801 11.5 26.7°
Reaches altitude 10° 08:44:34 10° 153° (SSE) 3,857 11.5 28.3°
Maximum altitude 08:47:25 11° 135° (SE) 3,757 11.7 29.0°
Drops below altitude 10° 08:50:17 10° 118° (ESE) 3,889 12.1 29.7°
Sets 08:56:51 0° 88° (E) 4,905 12.8 31.3°
